Home > Weather > Herzliya > Past weeks

Flag for Israel Past Weather in Herzliya, Israel — Yesterday and Last 2 Weeks

Now
77 °F

Passing clouds.


Feels Like: 78 °F
Forecast: 77 / 87 °F
Wind: 5 mph from Southeast

Location: Dov Airport

Current Time: Jul 26, 2016 at 5:37:38 AM

Latest Report: Jul 26, 2016 at 4:50 AM


Visibility: N/A

Pressure: 29.71 "Hg

Humidity: 89%

Dew Point: 73 °F

Location of HerzliyaLocation

Past Weather in Herzliya — Graph

°F

Herzliya Temperature Yesterday

Maximum temperature yesterday: 88 °F (at 11:50 AM)
Minimum temperature yesterday: 79 °F (at 5:50 AM)
Average temperature yesterday: 84 °F

High & Low Weather Summary for the Past Weeks

 TemperatureHumidityPressure
High88 °F (Jul 13, 1:50 PM)89% (Jul 11, 5:50 AM)29.89 "Hg (Jul 11, 5:50 AM)
Low75 °F (Jul 16, 6:00 AM)49% (Jul 19, 3:50 PM)29.65 "Hg (Jul 19, 5:50 AM)
Average83 °F68%29.75 "Hg
* Reported Jul 10 10:50 PM — Jul 25 10:50 PM, Herzliya, Weather by CustomWeather, © 2016

Note: Actual official high and low records may vary slightly from our data, if they occured in-between our weather recording intervals... More about our weather records

Advertising

Herzliya Weather History for the Previous 24 Hours

Scroll right to see more
 ConditionsComfort  
Time TempWeatherWind HumidityBarometerVisibility
10:50 PM
Mon, Jul 25
81 °FPassing clouds.5 mph84%29.71 "HgN/A
9:50 PM82 °FPassing clouds.5 mph79%29.71 "HgN/A
8:50 PM82 °FPassing clouds.3 mph79%29.71 "HgN/A
7:50 PM82 °FPassing clouds.5 mph79%29.68 "HgN/A
6:50 PM84 °FPassing clouds.6 mph74%29.68 "HgN/A
5:50 PM86 °FScattered clouds.8 mph70%29.68 "HgN/A
4:50 PM86 °FScattered clouds.8 mph70%29.68 "HgN/A
3:50 PM88 °FScattered clouds.10 mph66%29.68 "HgN/A
2:50 PM88 °FScattered clouds.13 mph66%29.68 "HgN/A
1:50 PM88 °FPassing clouds.13 mph66%29.65 "HgN/A
12:50 PM88 °FPassing clouds.14 mph66%29.68 "HgN/A
11:50 AM88 °FSunny.13 mph62%29.68 "Hg10 mi
10:50 AM86 °FPassing clouds.14 mph66%29.68 "HgN/A
9:50 AM84 °FPassing clouds.13 mph70%29.65 "HgN/A
8:50 AM82 °FScattered clouds.10 mph74%29.65 "HgN/A
7:50 AM81 °FPassing clouds.7 mph79%29.65 "HgN/A
6:50 AM79 °FPassing clouds.7 mph84%29.65 "HgN/A
5:50 AM79 °FPassing clouds.7 mph84%29.65 "HgN/A
Weather by CustomWeather, © 2016

See weather overviewHow to use our weather pages